Regional Weather Roundup
Issued by NWS

Home | Current Version | Previous Version | Text Only | Print | Product List | Glossary Off
Versions: 1 2 3 4 5 6 7 8 9 10 11 12 13 14 15 16 17 18 19 20 21 22 23 24 25 26 27 28 29 30 31 32 33 34 35 36 37 38 39 40 41 42 43 44 45 46 47 48 49 50

000
ASUS43 KFSD 142310
RWRSD

WEATHER ROUNDUP FOR SOUTH DAKOTA
NATIONAL WEATHER SERVICE SIOUX FALLS SD
600 PM CDT SUN SEP 14 2014

NOTE: "FAIR" INDICATES FEW OR NO CLOUDS BELOW 12,000 FEET WITH NO
SIGNIFICANT WEATHER AND/OR OBSTRUCTIONS TO VISIBILITY.


SDZ001>005-009-010-012>017-150000-
NORTHWEST AND NORTH CENTRAL SOUTH DAKOTA

CITY           SKY/WX    TMP DP  RH WIND       PRES   REMARKS
BUFFALO          N/A     56  35  45 E12       30.05R
FAITH            N/A     54  38  54 E6        30.13S
MOBRIDGE       PTSUNNY   56  38  50 NE6       30.11S
$$

SDZ012>016-024>037-041>051-057-063-072>074-150000-
SOUTHWEST AND SOUTH CENTRAL SOUTH DAKOTA

CITY           SKY/WX    TMP DP  RH WIND       PRES   REMARKS
RAPID CTY ARPT PTSUNNY   54  39  57 E7        30.11S
PIERRE         CLOUDY    55  38  52 NE5       30.12S
CUSTER         PTSUNNY   49  37  63 E6        30.11R
ELLSWORTH AFB  MOSUNNY   54  38  55 E5        30.11R
PHILIP         CLOUDY    53  39  59 E10       30.11F
PINE RIDGE     SUNNY     60  44  55 E13       30.06S
WINNER         CLOUDY    57  42  57 NE13      30.10R
$$

SDZ004>011-016>023-039-040-150000-
NORTHEAST SOUTH DAKOTA

CITY           SKY/WX    TMP DP  RH WIND       PRES   REMARKS
ABERDEEN       MOSUNNY   58  38  47 N6        30.12S
WATERTOWN      PTSUNNY   56  36  47 W3        30.12S
SISSETON         N/A     58  41  53 NW9       30.12R
$$

SDZ017-020-022-023-036>040-048>070-150000-
SOUTHEAST SOUTH DAKOTA

CITY           SKY/WX    TMP DP  RH WIND       PRES   REMARKS
SIOUX FALLS    PTSUNNY   61  46  57 NE7       30.10F
HURON          LGT RAIN  52  44  74 NE3       30.14R
CHAMBERLAIN    CLOUDY    54  43  66 NE7       30.12S
MITCHELL       CLOUDY    56  44  64 NE9       30.12F
YANKTON        MOSUNNY   64  48  55 NE3       30.08S
$$

ABBREVIATIONS USED IN REMARKS
   TC - TEMPERATURE IN CELSIUS
  WCI - WIND CHILL INDEX
   HX - HEAT INDEX
  VSB - VISIBILITY



USA.gov is the U.S. government's official web portal to all federal, state and local government web resources and services.